Погода в Среднем Урухе

Россия / Республика Северная Осетия — Алания     43°15′56″N   43°59′25″E
темп.,
°C
ветер,
м/с
пор.,
м/с
влажн.,
%
обл.,
%
осадки,
мм/ч
давл.,
гПа
погр.,
м
13 апреля, вт
вт1300:00+8с1383100 0.0 1023305
03:00+7с1189100 0.4 1023157
06:00+7св0093100 0.1 1022104
09:00+7ссв1192100 0.9 1022175
12:00+8ссв2291100 1.0 1022393
15:00+9св1185100 1.0 1021459
18:00+8з1191100 0.2 1020113
21:00+7з009577 5.9 102020
14 апреля, ср
ср1400:00+6з119322 0.0 101911
03:00+6зюз229192 0.0 101823
06:00+6юз2289100 0.1 101839
09:00+11св2372100 0.4 1017663
12:00+12св326694 0.1 10171018
15:00+13в116083 0.2 10161124
18:00+12вюв116993 0.0 101716
21:00+10з117896 0.1 101811
15 апреля, чт
чт1500:00+7з00885 0.0 101810
03:00+6юз22821 0.0 101814
06:00+6юз22635 0.0 101824
09:00+14ссв11487 0.0 1017510
12:00+17св22471 0.0 10161264
15:00+18св32424 0.0 10151543
18:00+15св2354100 0.0 101646
21:00+13ююз1158100 0.0 101710
16 апреля, пт
пт1600:00+11юз226584 0.0 101713
03:00+9юз226442 0.0 101715
06:00+9юз116397 0.0 101711
09:00+15в235293 0.0 1017657
12:00+18в334422 0.0 10151595
15:00+19в444026 0.0 10141883
18:00+16вюв375451 0.0 1014244
21:00+11зсз227590 0.8 101720
17 апреля, сб
сб1700:00+10зюз227288 0.0 101812
03:00+9с129299 0.0 101729
06:00+9ссз3796100 0.0 1021565
09:00+9св2496100 1.5 1022496
12:00+8ссв1390100 1.1 1023403
15:00+8св1184100 1.1 1023458
18:00+8ююв1188100 0.0 1023157
21:00+8ююз1189100 0.0 102257